EN

Hourly Weather Kyshtym

Today, 27 July, Tuesday

Time Temperature Precipitation Wind Pressure Humidity
00:00 +12°C° 0 mm 2 mps 740 mmHg 78%
01:00 +10°C° 0 mm 2 mps 739 mmHg 79%
02:00 +10°C° 0 mm 2 mps 739 mmHg 78%
03:00 +10°C° 0 mm 2 mps 739 mmHg 77%
04:00 +10°C° 0 mm 3 mps 739 mmHg 76%
05:00 +12°C° 0 mm 3 mps 739 mmHg 70%
06:00 +14°C° 0 mm 4 mps 738 mmHg 65%
07:00 +15°C° 0 mm 4 mps 738 mmHg 59%
08:00 +17°C° 0 mm 5 mps 738 mmHg 55%
09:00 +19°C° 0 mm 5 mps 737 mmHg 51%
10:00 +21°C° 0 mm 6 mps 737 mmHg 47%
11:00 +20°C° 0 mm 6 mps 737 mmHg 50%
12:00 +19°C° 0 mm 6 mps 737 mmHg 54%
13:00 +19°C° 0 mm 5 mps 737 mmHg 57%
14:00 +19°C° 0 mm 5 mps 736 mmHg 58%
15:00 +20°C° 0 mm 6 mps 736 mmHg 60%
16:00 +20°C° 0 mm 6 mps 735 mmHg 61%
17:00 +19°C° 0.1 mm 5 mps 735 mmHg 67%
18:00 +18°C° 0.1 mm 4 mps 735 mmHg 74%
19:00 +17°C° 0.1 mm 3 mps 735 mmHg 81%
20:00 +16°C° 0 mm 3 mps 735 mmHg 85%
21:00 +14°C° 0 mm 2 mps 735 mmHg 90%
22:00 +13°C° 0 mm 2 mps 736 mmHg 94%
23:00 +12°C° 0 mm 2 mps 736 mmHg 90%

Tomorrow, 28 July, Wednesday

Time Temperature Precipitation Wind Pressure Humidity
00:00 +12°C° 0 mm 1 mps 736 mmHg 87%
01:00 +12°C° 0 mm 1 mps 736 mmHg 83%
02:00 +12°C° 0 mm 1 mps 736 mmHg 82%
03:00 +12°C° 0 mm 1 mps 736 mmHg 81%
04:00 +12°C° 0 mm 1 mps 736 mmHg 80%
05:00 +13°C° 0 mm 2 mps 736 mmHg 76%
06:00 +13°C° 0 mm 2 mps 736 mmHg 72%
07:00 +13°C° 0 mm 3 mps 736 mmHg 67%
08:00 +14°C° 0 mm 3 mps 736 mmHg 60%
09:00 +15°C° 0 mm 4 mps 735 mmHg 52%
10:00 +17°C° 0 mm 5 mps 735 mmHg 44%
11:00 +17°C° 0 mm 5 mps 735 mmHg 45%
12:00 +17°C° 0 mm 5 mps 735 mmHg 45%
13:00 +17°C° 0 mm 5 mps 735 mmHg 45%
14:00 +16°C° 0.2 mm 5 mps 735 mmHg 52%
15:00 +15°C° 0.2 mm 5 mps 735 mmHg 59%
16:00 +15°C° 0.2 mm 5 mps 735 mmHg 66%
17:00 +14°C° 0.1 mm 4 mps 735 mmHg 69%
18:00 +14°C° 0.1 mm 4 mps 736 mmHg 73%
19:00 +13°C° 0.1 mm 4 mps 736 mmHg 76%
20:00 +12°C° 0 mm 3 mps 736 mmHg 82%
21:00 +10°C° 0 mm 2 mps 736 mmHg 88%
22:00 +9°C° 0 mm 1 mps 736 mmHg 93%
23:00 +9°C° 0 mm 1 mps 736 mmHg 94%

Day after tomorrow, 29 July, Thursday

Time Temperature Precipitation Wind Pressure Humidity
00:00 +8°C° 0 mm 2 mps 736 mmHg 94%
01:00 +7°C° 0 mm 2 mps 736 mmHg 94%
02:00 +7°C° 0 mm 2 mps 736 mmHg 94%
03:00 +7°C° 0 mm 2 mps 736 mmHg 94%
04:00 +7°C° 0 mm 2 mps 736 mmHg 94%
05:00 +9°C° 0 mm 2 mps 736 mmHg 85%
06:00 +12°C° 0 mm 2 mps 736 mmHg 77%
07:00 +13°C° 0 mm 3 mps 737 mmHg 68%
08:00 +16°C° 0 mm 3 mps 736 mmHg 59%
09:00 +18°C° 0 mm 4 mps 736 mmHg 51%
10:00 +20°C° 0 mm 4 mps 736 mmHg 42%
11:00 +21°C° 0 mm 4 mps 736 mmHg 40%
12:00 +22°C° 0 mm 4 mps 736 mmHg 37%
13:00 +23°C° 0 mm 4 mps 736 mmHg 35%
14:00 +23°C° 0 mm 4 mps 735 mmHg 35%
15:00 +23°C° 0 mm 4 mps 735 mmHg 36%
16:00 +23°C° 0 mm 4 mps 735 mmHg 36%
17:00 +22°C° 0 mm 4 mps 735 mmHg 45%
18:00 +20°C° 0 mm 3 mps 735 mmHg 53%
19:00 +19°C° 0 mm 2 mps 734 mmHg 61%
20:00 +17°C° 0 mm 2 mps 734 mmHg 62%
21:00 +16°C° 0 mm 2 mps 734 mmHg 63%
22:00 +15°C° 0 mm 2 mps 733 mmHg 64%
23:00 +16°C° 0 mm 3 mps 733 mmHg 61%

30 July, Friday

Time Temperature Precipitation Wind Pressure Humidity
00:00 +16°C° 0 mm 3 mps 733 mmHg 58%
01:00 +16°C° 0 mm 3 mps 732 mmHg 55%
02:00 +14°C° 0.7 mm 3 mps 732 mmHg 66%
03:00 +15°C° 0.7 mm 2 mps 731 mmHg 77%
04:00 +14°C° 0.7 mm 2 mps 731 mmHg 89%
05:00 +13°C° 0.6 mm 3 mps 731 mmHg 91%
06:00 +14°C° 0.6 mm 3 mps 730 mmHg 93%
07:00 +14°C° 0.6 mm 4 mps 730 mmHg 95%
08:00 +15°C° 0 mm 4 mps 729 mmHg 93%
09:00 +16°C° 0 mm 3 mps 729 mmHg 91%
10:00 +17°C° 0 mm 3 mps 729 mmHg 89%
11:00 +18°C° 0 mm 4 mps 730 mmHg 83%
12:00 +20°C° 0 mm 4 mps 730 mmHg 77%
13:00 +21°C° 0 mm 5 mps 730 mmHg 70%
14:00 +22°C° 0 mm 5 mps 730 mmHg 68%
15:00 +23°C° 0 mm 5 mps 730 mmHg 65%
16:00 +23°C° 0 mm 5 mps 730 mmHg 63%
17:00 +22°C° 0 mm 5 mps 731 mmHg 68%
18:00 +22°C° 0 mm 4 mps 731 mmHg 73%
19:00 +21°C° 0 mm 4 mps 731 mmHg 78%
20:00 +20°C° 0.1 mm 3 mps 731 mmHg 83%
21:00 +19°C° 0.1 mm 2 mps 731 mmHg 87%
22:00 +18°C° 0.1 mm 2 mps 731 mmHg 92%
23:00 +17°C° 0 mm 2 mps 731 mmHg 93%

31 July, Saturday

Time Temperature Precipitation Wind Pressure Humidity
00:00 +17°C° 0 mm 2 mps 732 mmHg 94%
01:00 +16°C° 0 mm 2 mps 732 mmHg 95%
02:00 +16°C° 0 mm 2 mps 732 mmHg 96%
03:00 +16°C° 0 mm 2 mps 732 mmHg 96%
04:00 +16°C° 0 mm 2 mps 733 mmHg 97%
05:00 +17°C° 0 mm 2 mps 733 mmHg 94%
06:00 +17°C° 0 mm 3 mps 734 mmHg 91%
07:00 +18°C° 0 mm 3 mps 734 mmHg 87%
08:00 +20°C° 0 mm 3 mps 734 mmHg 81%
09:00 +21°C° 0 mm 3 mps 734 mmHg 75%
10:00 +22°C° 0 mm 3 mps 735 mmHg 68%
11:00 +25°C° 0 mm 3 mps 735 mmHg 62%
12:00 +26°C° 0 mm 3 mps 735 mmHg 55%
13:00 +27°C° 0 mm 3 mps 735 mmHg 48%
14:00 +27°C° 0 mm 3 mps 735 mmHg 48%
15:00 +27°C° 0 mm 2 mps 735 mmHg 48%
16:00 +28°C° 0 mm 2 mps 734 mmHg 48%
17:00 +26°C° 0 mm 2 mps 734 mmHg 55%
18:00 +25°C° 0 mm 1 mps 734 mmHg 63%
19:00 +23°C° 0 mm 1 mps 734 mmHg 70%
20:00 +22°C° 0 mm 1 mps 734 mmHg 73%
21:00 +21°C° 0 mm 1 mps 735 mmHg 76%
22:00 +19°C° 0 mm 2 mps 735 mmHg 79%
23:00 +19°C° 0 mm 2 mps 734 mmHg 77%

1 August, Sunday

Time Temperature Precipitation Wind Pressure Humidity
00:00 +19°C° 0 mm 2 mps 734 mmHg 75%
01:00 +19°C° 0 mm 2 mps 734 mmHg 73%
02:00 +18°C° 0.1 mm 2 mps 734 mmHg 77%
03:00 +18°C° 0.1 mm 2 mps 734 mmHg 81%
04:00 +17°C° 0.1 mm 2 mps 734 mmHg 85%
05:00 +18°C° 0.2 mm 2 mps 735 mmHg 84%
06:00 +20°C° 0.2 mm 2 mps 735 mmHg 84%
07:00 +21°C° 0.2 mm 3 mps 735 mmHg 83%
08:00 +24°C° 0 mm 3 mps 735 mmHg 72%
09:00 +26°C° 0 mm 3 mps 736 mmHg 62%
10:00 +28°C° 0 mm 4 mps 736 mmHg 51%
11:00 +28°C° 0 mm 4 mps 736 mmHg 48%
12:00 +29°C° 0 mm 4 mps 736 mmHg 45%
13:00 +30°C° 0 mm 4 mps 736 mmHg 41%
14:00 +29°C° 0 mm 4 mps 736 mmHg 43%
15:00 +29°C° 0 mm 4 mps 736 mmHg 44%
16:00 +29°C° 0 mm 4 mps 736 mmHg 45%
17:00 +28°C° 0 mm 3 mps 736 mmHg 53%
18:00 +26°C° 0 mm 2 mps 737 mmHg 61%
19:00 +25°C° 0 mm 1 mps 737 mmHg 70%
20:00 +24°C° 0 mm 1 mps 737 mmHg 71%
21:00 +23°C° 0 mm 1 mps 737 mmHg 72%
22:00 +22°C° 0 mm 1 mps 737 mmHg 73%
23:00 +21°C° 0 mm 1 mps 737 mmHg 75%
Show more